Regional Weather Roundup
Issued by NWS

Home | Current Version | Previous Version | Text Only | Print | Product List | Glossary On
Versions: 1 2 3 4 5 6 7 8 9 10 11 12 13 14 15 16 17 18 19 20 21 22 23 24 25 26 27 28 29 30 31 32 33 34 35 36 37 38 39 40 41 42 43 44 45 46 47 48 49 50
000
ASHW40 PHFO 230430
RWRHI

WEATHER ROUNDUP FOR HAWAII
NATIONAL WEATHER SERVICE HONOLULU HI
600 PM HST MON SEP 22 2014

THIS IS AN AUTOMATED REPORT THAT HAS NOT BEEN QUALITY CONTROLLED.

NOTE..."FAIR" INDICATES FEW OR NO CLOUDS BELOW 12,000 FEET WITH NO
SIGNIFICANT WEATHER AND/OR OBSTRUCTIONS TO VISIBILITY.

* - THESE SITES REPORT LIMITED FIELDS

HIZ001>004-230500-
KAUAI-NIIHAU-

CITY           SKY/WX    TMP DP  RH WIND       PRES   REMARKS
LIHUE APT      PTCLDY    82  72  71 NE13      30.04R
PORT ALLEN*      N/A     84 N/A N/A E17G24      N/A
POIPU*           N/A     84 N/A N/A NE7G15      N/A
PRINCEVILLE*   NOT AVBL
KOKOLE POINT*  NOT AVBL
MOLOAA DAIRY*  NOT AVBL
WAIMEA HTS*    NOT AVBL
PUU OPAE*      NOT AVBL
PUU LUA*       NOT AVBL
MAKAHA RIDGE*  NOT AVBL
$$

HIZ005>011-230500-
OAHU-

CITY           SKY/WX    TMP DP  RH WIND       PRES   REMARKS
HONOLULU       PTCLDY    85  67  54 NE14      30.00R
KALAELOA       CLEAR     85  67  54 VRB7      30.01R
KANEOHE MCB    PTCLDY    81  72  75 NE8       30.02R
WHEELER FIELD  FAIR      80  67  64 NE21      30.02S
BELLOWS*         N/A    N/A N/A N/A NE16        N/A
KAHUKU*          N/A    N/A N/A N/A NE7G14      N/A
WHEELER*       NOT AVBL
WAIANAE HARBOR NOT AVBL
DILLINGHAM*      N/A     84  70  61 NE9G18      N/A
KAHUKU TRN*      N/A     81  72  74 E7G16       N/A
KAWAILOA*      NOT AVBL
KII*             N/A     82  73  74 E13         N/A
MAKUA RANGE*     N/A     84  68  58 NE10G18     N/A
OAHU FOREST NW NOT AVBL
SCHOFIELD BRK*   N/A     79  66  65 MISG        N/A
SCHOFIELD S*   NOT AVBL
WAIANAE VLY*   NOT AVBL
KUAOKALA*      NOT AVBL
HONOULIUULI*   NOT AVBL
MOKUOLOE IS*     N/A    N/A N/A N/A MISG        N/A
PALEHUA*       NOT AVBL
WAIAWA PHB*    NOT AVBL
$$

HIZ012>013-230500-
MOLOKAI-

CITY           SKY/WX    TMP DP  RH WIND       PRES   REMARKS
MOLOKAI AIRPT  PTCLDY    81  73  78 NE15G21   30.03R
KALAUPAPA      NOT AVBL
MAKAPULAPAI*   NOT AVBL
MOLOKAI 1*     NOT AVBL
PUU ALII*        N/A     64  63  95 E3G12       N/A
$$

HIZ016-230500-
KAHOOLAWE-

CITY           SKY/WX    TMP DP  RH WIND       PRES   REMARKS
KAHOOLAWE*     NOT AVBL
HAKIOAWA*      NOT AVBL
HONOKANAIA*      N/A     85  67  54 NE14G23   29.99S
KANELOA*         N/A     81  70  69 E17G29    29.22R
KEALIALALO*    NOT AVBL
LUA MAKIKA*    NOT AVBL
$$

HIZ014>015-230500-
LANAI-

CITY           SKY/WX    TMP DP  RH WIND       PRES   REMARKS
LANAI CITY     FAIR      78  68  71 NE18      30.05R
LANAI 1*       NOT AVBL
$$

HIZ017>028-230500-
MAUI-

CITY           SKY/WX    TMP DP  RH WIND       PRES   REMARKS
KAHULUI        PTCLDY    82  69  64 NE21G28   29.99R
KAPALUA-W MAUI PTCLDY    81  70  69 NE15      30.01
HANA AIRPORT   MOCLDY    81  72  74 CALM      30.05S HAZE
HANA*            N/A     82 N/A N/A E6          N/A
HALEAKALA SUMM   N/A     50  12  22 NE17        N/A
MAALAEA BAY*   NOT AVBL
HALEAKALA*     NOT AVBL
KAUPO GAP*     NOT AVBL
KULA 1*          N/A     60  57  91 NW2G9       N/A
$$

HIZ023>026-230500-
BIG ISLAND OF HAWAII COAST AND LOWER SLOPES-

CITY           SKY/WX    TMP DP  RH WIND       PRES   REMARKS
KAILUA KONA    PTCLDY    85  72  65 S12       29.94S HX  91
HILO           PTCLDY    81  70  69 N5        30.02R
HONOKAA*       NOT AVBL
KAWAIHAE MWT*    N/A     86 N/A N/A W8G14       N/A
KAWAIHAE*        N/A     84 N/A N/A SW10        N/A
SOUTH POINT*     N/A     77 N/A N/A NE18G25     N/A
UPOLU AIRPORT*   N/A    N/A N/A N/A NE16G23     N/A
KAMUELA*       CLEAR     68  61  77 NE17      30.09S
HAKALAU*         N/A     57  53  85 SE1         N/A
KALOKO-HONOKO*   N/A     82  72  69 SE6G12    29.95R
PALI 2*          N/A    N/A N/A N/A N22G32      N/A
KEALAKOMO*       N/A     84  68  58 NE18G28     N/A
KAUPULEHU*     NOT AVBL
KAPAPALA*        N/A     76  65  67 NW3G14      N/A
LOWER KAHUKU*  NOT AVBL
PUHE CS*       NOT AVBL
PUHO CS*         N/A     77  77 100 S1          N/A
PTA KEAMUKU*     N/A     68  59  73 NE17G33     N/A
WAIKOLOA*      NOT AVBL
$$

HIZ027>028-230500-
BIG ISLAND OF HAWAII INTERIOR AND SUMMMITS-

CITY           SKY/WX    TMP DP  RH WIND       PRES   REMARKS
BRADSHAW FIELD PTCLDY    61  53  75 SE12      30.35R
MK VISITOR CEN NOT AVBL
MAUNA KEA*       N/A     36  10  35 E40         N/A  WCI  21
MAUNA LOA*       N/A    N/A N/A N/A MISG        N/A
MAUNA LOA 1*   NOT AVBL
PTA KIPUKA*      N/A     66  57  72 W3G12       N/A
PTA RANGE 17*    N/A     66  55  68 S7G16       N/A
PTA WEST*        N/A     70  59  68 W7G13       N/A
NENE CABIN*    NOT AVBL
AHUMOA*        NOT AVBL
PTA PORTABLE*  NOT AVBL
PUU MALI*      NOT AVBL
$$

HIC003-230500-
NORTHWEST ISLANDS-

CITY           SKY/WX    TMP DP  RH WIND       PRES   REMARKS
MIDWAY ISLAND  MOSUNNY   86  75  70 E14       30.09R HX  95
MIDWAY NOS*    NOT AVBL
FRENCH FRIGATE NOT AVBL
$$

PHZ110>124-180-230500-
BUOY REPORTS

STATION/POSITION TIME  TEMP    WIND        PRES    WAVE   SWELL
                       AIR SEA DIR/SP/G            HT/PER HT/DIR
                 (UTC) (F)     (DEG/KT/KT) (MB)    (FT/S) (FT/D)
BUOY 51001       NOT AVBL
BUOY 51101       NOT AVBL
BUOY 51100       0400   80 83   40/  8/ 10 1017.5R
BUOY 51003       0400   83 84   50/ 10/ 14 1014.9R   4/ 8   3
BUOY 51004       0345   81 81   60/ 17/ 21 1013.6R   5/ 6   3/ 90
BARBERS PT BUOY  NOT AVBL
WAIMEA BAY BUOY  0400      83                N/A     3/ 8
KAILUA BAY BUOY  0400      82                N/A     4/ 8   2/ 50
LANAI BUOY       NOT AVBL
BARBERS PT 2     0400      83                N/A     4/ 8   2/170
PAUWELA MAUI     0400      81                N/A     4/ 8   2/ 40
HILO             0400      82                N/A     4/ 8   2/ 70
KANEOHE BAY BUOY NOT AVBL
HANALEI KAUAI    NOT AVBL
KAHULUI HARBOR   0400   81 84   60/ 22/ 27 1015.5R
HONOLULU HARBOR  0400   84      40/  7/ 12 1016.3R
KILO NALU        NOT AVBL
HILO HARBOR      0400   80     340/  5/  5 1016.1R
MOKUOLOE         0400   82 86   80/ 11/ 14 1016.9R
NAWILIWILI       0400      85                N/A
WHOTS BUOY       NOT AVBL
BUOY 51028       NOT AVBL
$$

......................KEY........................................
  SKY/WX - SKY CONDITIONS/PRESENT WEATHER
  TMP    - TEMPERATURE IN FAHRENHEIT
  DWPT   - DEWPOINT IN FAHRENHEIT
  RH     - RELATIVE HUMIDITY IN PERCENT
  WIND   - DIRECTION AND SPEED /MPH FOR ISLANDS...KTS FOR BUOYS/
  PRES   - MEAN SEA LEVEL PRESSURE IN INCHES OF HG
  VSB    - VISIBILITY IN MILES
  HX     - HEAT INDEX
  WCI    - WIND CHILL INDEX
  VRB    - VARIABLE WIND DIRECTION
  N/A    - NOT AVAILABLE



USA.gov is the U.S. government's official web portal to all federal, state and local government web resources and services.